Wind_Speed
14 14 14 15 15 15 15 16 19 21 21 20 19 18 18 18 20 20 17 18 19 15 16 20 20 20 21 20 18 18 18 18 17 16 16 16 17 17 17 17 17 16 16 16 16 15 14 15 17 17 18 18 19 20 21 21 20 20 22 23 25 24 20 25 34 37 35 32 31 30 29 32 35 33 33 31 26 23 20 19 24 25 28 28 11 6 28
14 15 16 18 18 19 19 20 21 22 22 21 18 16 17 18 20 20 18 18 17 16 18 19 18 19 20 19 18 18 18 18 17 17 16 16 16 16 16 17 16 16 16 16 16 16 14 15 17 18 19 19 20 21 22 22 20 22 24 25 26 22 19 23 26 26 31 34 32 35 37 36 37 38 37 34 32 30 28 27 23 20 29 31 11 10 30
18 20 21 22 22 22 22 22 21 21 20 19 16 15 15 16 18 19 19 16 14 16 19 17 17 18 18 18 18 17 17 18 17 16 16 16 15 15 16 16 16 16 15 15 16 16 16 17 17 18 20 20 20 22 22 21 22 24 25 26 27 24 23 23 15 8 12 17 21 32 39 38 39 41 41 39 38 36 33 30 22 17 26 34 23 24 36
25 25 25 25 24 23 22 22 21 20 19 17 16 14 13 14 16 17 18 16 14 18 20 17 17 17 17 18 18 16 16 17 15 15 15 15 15 15 15 15 14 15 15 16 17 17 18 20 19 19 20 20 22 23 21 21 23 25 26 28 28 27 29 26 18 15 19 23 29 34 34 33 36 40 43 42 38 33 31 29 24 22 29 36 34 34 36
27 26 25 24 24 23 22 21 19 19 17 16 15 14 12 14 14 13 13 14 15 18 19 17 16 16 16 17 17 16 16 15 15 15 15 15 14 14 14 14 14 15 16 16 18 19 18 19 20 19 19 21 22 22 21 20 22 25 27 28 28 30 31 29 27 29 32 35 37 34 28 30 36 40 42 39 30 26 27 26 25 25 24 25 29 32 30
26 25 24 23 23 22 22 21 20 18 16 15 14 12 12 14 15 14 13 14 15 17 17 16 16 15 16 17 16 16 15 15 15 14 14 15 15 14 15 15 16 18 18 18 20 21 20 21 22 21 21 23 23 22 21 20 23 25 26 27 29 30 30 32 34 36 38 39 36 32 31 34 38 39 36 29 23 23 27 27 26 24 18 18 24 29 29
25 23 22 21 21 20 20 20 20 18 16 15 13 11 12 14 15 14 15 15 16 16 16 16 15 14 15 16 16 15 14 14 15 14 14 15 15 15 16 16 17 19 20 20 22 24 24 25 25 24 24 24 25 24 21 21 23 24 25 27 28 29 32 34 36 39 41 40 37 37 37 38 40 36 25 19 21 24 27 29 29 27 25 26 28 30 33
24 23 22 21 20 19 18 18 19 18 16 15 13 12 13 14 14 13 13 15 16 15 16 16 15 14 14 15 15 14 13 13 14 15 15 15 15 15 16 17 18 19 20 21 22 24 24 25 25 25 25 25 26 24 22 23 23 22 25 26 27 30 33 33 36 41 43 41 40 41 40 39 38 28 18 19 28 32 33 33 34 33 32 31 31 34 41
23 22 22 21 20 19 18 17 17 17 17 15 12 13 15 16 16 14 11 13 16 15 15 15 13 14 14 14 14 14 14 13 13 14 15 16 16 15 15 17 18 19 21 21 21 22 23 23 24 23 23 25 24 22 21 22 22 23 25 25 26 30 32 33 36 39 42 45 44 42 42 40 30 19 18 25 30 31 32 33 35 33 28 28 33 40 50
22 22 22 22 21 20 19 18 17 17 17 15 13 15 16 16 18 17 12 12 16 15 14 13 12 13 14 13 14 14 14 13 13 14 15 16 16 16 15 16 18 20 21 22 21 22 23 23 23 22 22 22 21 19 19 20 21 24 25 25 28 30 31 34 34 33 41 46 43 43 44 32 16 11 18 25 27 29 33 36 38 34 27 29 39 49 60
23 23 23 22 21 21 20 18 18 17 16 16 16 17 17 16 17 17 14 12 15 14 13 13 12 13 13 12 13 13 13 13 12 13 14 14 16 16 16 17 19 21 23 23 23 23 24 23 23 22 21 21 20 17 16 19 21 22 24 26 30 31 31 33 29 29 38 44 42 42 33 15 7 11 16 24 31 35 39 41 42 40 35 33 37 50 65
24 24 24 23 21 21 20 19 18 17 17 18 18 18 18 17 15 15 13 13 14 13 12 12 12 12 12 11 11 12 11 11 11 12 13 14 15 17 17 18 20 22 24 24 24 24 25 24 23 23 21 22 21 15 14 21 22 22 26 28 30 32 33 32 30 29 35 40 35 26 16 11 14 15 15 23 33 38 42 44 45 46 40 36 43 59 70
24 23 23 22 21 20 19 19 19 18 19 20 19 17 18 17 15 13 12 13 13 12 10 11 11 10 11 10 10 10 10 11 11 12 13 14 15 17 18 19 20 23 24 24 25 26 27 27 26 25 24 24 23 17 17 24 25 25 28 29 31 33 32 32 33 29 30 33 25 16 21 29 27 23 24 31 37 42 46 48 50 46 33 36 56 72 74
22 22 21 20 19 20 20 20 20 20 20 20 18 17 17 16 14 13 12 12 12 11 10 10 10 9 9 10 10 10 10 11 12 13 13 15 16 17 18 19 20 23 24 25 26 28 29 30 30 30 29 29 27 23 23 27 27 27 31 31 32 33 33 34 32 25 24 28 27 27 32 32 26 25 31 38 45 49 48 49 51 41 32 46 69 75 72
20 19 19 18 18 19 20 20 20 20 19 18 18 17 16 15 14 14 13 12 11 11 10 9 9 8 8 9 10 10 10 11 13 13 14 15 16 17 18 19 21 23 24 25 27 29 29 29 30 30 30 29 28 26 27 30 30 30 32 32 33 34 34 32 28 25 26 28 25 22 19 16 17 25 34 43 50 53 53 53 49 42 47 63 72 69 68
18 17 16 17 17 18 19 20 20 20 19 18 18 16 15 15 15 14 13 12 11 10 10 8 7 8 8 8 9 9 10 12 13 14 14 16 17 17 18 19 21 23 24 26 27 28 28 27 27 26 24 23 24 24 27 32 32 33 34 34 35 35 33 32 29 28 28 25 19 14 13 14 19 28 38 47 52 58 60 50 44 51 63 68 66 64 65
16 15 15 15 16 17 18 19 20 20 19 18 16 15 14 14 15 14 13 12 11 10 9 8 6 6 7 8 8 10 10 12 14 14 15 16 17 17 18 19 21 23 24 26 27 27 27 27 27 25 22 22 23 23 26 30 33 34 34 35 36 34 31 31 28 26 28 26 21 20 21 22 23 31 43 50 56 62 53 34 38 60 68 62 62 64 62
14 14 14 14 14 16 17 18 19 19 19 18 17 16 16 15 14 14 13 11 11 9 8 8 7 7 7 8 9 10 11 12 14 15 15 16 17 18 18 19 21 24 25 27 28 28 27 27 27 26 23 24 25 24 24 27 31 31 30 33 36 35 32 30 28 30 32 28 24 25 26 24 27 36 48 55 60 58 42 32 48 65 63 59 63 62 60
13 13 13 13 13 14 16 18 19 19 19 20 18 17 16 15 15 14 13 12 11 10 9 8 8 8 8 9 10 12 12 14 15 15 15 17 18 18 19 20 23 25 26 27 28 28 27 27 26 24 23 25 27 25 24 26 28 27 28 30 33 33 33 31 30 33 34 30 29 29 25 25 33 45 54 59 55 47 42 48 59 62 59 61 63 60 61
12 12 12 12 12 13 14 17 18 19 20 20 19 18 18 17 16 16 15 13 12 11 10 9 8 8 9 10 11 12 13 14 15 15 15 17 17 19 20 22 25 27 26 28 29 27 26 27 26 23 22 24 26 25 27 29 26 24 26 28 28 30 29 28 29 33 33 30 26 20 19 31 45 53 57 55 48 45 51 59 60 59 61 63 62 62 63
11 10 11 12 11 11 13 16 18 19 20 20 21 20 19 18 17 16 15 14 13 12 10 9 8 9 10 11 11 12 13 14 14 15 15 16 17 19 21 23 26 27 27 28 28 25 25 25 24 23 22 23 24 25 28 31 27 24 27 28 29 30 27 26 29 29 26 26 24 21 27 41 50 53 55 54 51 54 59 61 62 64 64 62 63 64 63
9 9 11 12 11 11 12 15 17 19 20 21 21 20 18 17 17 17 16 16 16 14 11 9 9 10 10 11 11 12 13 13 14 14 15 16 17 19 21 22 25 25 26 26 25 23 23 22 22 22 22 23 26 26 28 29 27 28 31 32 30 29 27 27 28 28 27 30 33 35 40 47 53 58 60 58 59 62 62 63 66 66 64 62 63 64 64
7 9 10 12 12 11 11 14 17 19 20 21 21 19 18 18 19 19 18 18 17 14 11 10 10 10 10 11 11 12 12 13 13 14 15 16 17 19 21 23 24 24 24 23 23 22 22 21 21 21 21 23 26 27 28 28 27 30 33 32 29 29 31 32 32 33 37 41 43 46 50 55 60 63 61 61 65 66 65 66 68 66 64 64 63 64 66
6 8 9 11 11 10 11 13 16 18 20 21 20 20 20 20 20 20 20 19 17 15 12 12 12 11 11 11 11 11 11 12 12 14 15 17 18 20 22 23 24 23 22 22 21 21 21 20 20 21 21 23 24 25 25 26 27 30 32 32 31 32 35 38 39 40 43 46 49 54 60 63 64 63 63 66 68 67 66 68 67 66 66 65 64 65 64
5 7 9 10 11 10 10 12 15 18 20 21 22 22 22 22 22 22 21 20 18 15 14 13 12 11 11 11 10 10 11 11 13 14 16 18 20 22 23 23 23 22 21 21 20 20 19 19 20 21 23 24 25 23 22 23 28 30 30 30 31 33 37 41 43 43 44 47 53 60 66 69 68 66 68 69 69 68 68 67 66 66 67 66 64 63 61
5 7 9 10 10 10 9 12 15 17 20 23 24 24 23 23 23 23 22 21 19 16 15 15 13 12 11 10 10 11 11 12 14 15 17 20 22 23 23 22 21 20 20 19 19 19 18 18 20 22 23 24 25 24 23 24 26 27 26 25 26 31 35 38 42 47 50 54 59 63 69 72 70 67 67 68 67 67 67 66 66 66 66 65 64 61 60
5 6 9 10 11 10 10 12 15 18 21 23 24 24 24 24 24 23 22 21 19 17 16 15 13 12 10 9 9 11 12 13 15 17 19 21 22 23 22 21 20 19 19 19 18 18 17 18 21 23 24 24 25 25 25 25 25 25 25 25 26 30 34 37 43 51 56 59 59 59 62 67 68 67 66 67 65 65 65 65 66 65 63 63 64 63 62
6 7 9 11 11 11 11 12 15 17 20 22 24 24 24 24 23 22 21 21 20 17 16 15 13 11 10 9 10 11 13 14 17 19 20 21 22 22 21 20 19 18 18 18 18 17 17 20 23 23 23 25 26 25 25 25 25 25 25 25 27 30 34 40 48 54 57 59 59 57 58 62 66 67 66 65 63 63 64 64 63 62 61 62 63 64 65
7 8 9 11 12 11 12 13 15 17 19 21 23 25 24 23 23 22 21 21 20 18 16 15 13 11 10 10 11 12 14 16 18 20 22 22 22 21 20 19 19 18 18 18 17 16 18 21 23 22 23 26 27 26 25 25 26 26 26 28 30 31 35 43 52 55 57 59 60 61 61 63 65 66 65 63 62 62 63 62 60 61 61 62 62 63 65
7 8 9 11 11 11 12 13 14 16 18 21 23 25 24 24 23 23 22 22 20 19 17 15 13 11 10 11 12 13 15 17 19 20 22 22 21 20 19 19 19 18 17 17 16 16 19 23 23 22 24 28 29 27 27 26 26 27 30 32 35 37 42 50 55 55 56 58 60 62 62 62 63 65 63 61 61 62 62 61 61 61 62 62 63 64 65
8 8 9 11 11 11 12 12 13 15 18 21 23 24 25 25 24 23 22 22 20 19 18 16 15 12 10 12 14 14 16 18 19 21 21 21 21 20 19 19 18 17 17 16 15 17 21 24 22 22 24 28 29 28 27 28 30 35 37 38 41 45 52 57 57 56 56 58 60 61 61 61 63 64 63 62 62 62 61 61 62 63 63 63 64 64 65
9 9 10 12 12 13 13 13 15 16 18 19 22 24 25 25 24 22 22 21 20 19 18 17 15 12 11 13 15 15 16 18 20 20 20 20 19 18 17 17 16 16 16 15 15 19 23 24 23 23 25 28 30 28 27 29 35 39 41 44 49 54 58 59 58 58 58 58 59 62 63 64 64 65 64 64 63 61 61 62 63 64 64 65 65 66 67
10 10 12 13 14 15 16 16 16 17 18 19 22 24 25 24 22 22 21 20 19 19 18 17 14 13 13 15 16 17 18 19 19 20 20 19 18 17 16 16 16 16 16 16 16 21 25 25 24 25 27 30 31 29 28 31 36 38 42 48 55 58 59 58 59 59 60 59 59 61 64 66 65 63 62 63 62 60 61 62 64 64 66 67 68 69 70
11 12 13 15 16 16 17 17 17 18 19 21 22 23 23 23 22 21 21 20 19 19 18 17 14 14 14 16 17 18 21 22 21 21 20 19 18 16 16 16 16 16 17 16 18 23 27 26 24 25 27 30 31 31 32 35 37 39 45 52 56 57 59 61 62 62 61 60 58 59 62 63 64 63 62 62 61 61 62 63 64 66 68 70 71 73 73
13 14 15 16 17 17 17 18 18 19 20 21 22 22 22 22 21 21 20 19 19 18 18 17 16 16 16 16 17 18 21 22 22 22 21 20 18 17 18 17 16 17 16 16 19 25 28 26 25 26 27 29 31 32 35 38 40 44 50 54 55 56 59 62 63 63 62 60 60 61 62 63 63 63 63 63 62 63 64 65 66 68 71 72 74 74 73
14 15 15 16 17 18 18 18 19 19 20 21 21 22 21 21 21 21 20 19 19 19 18 17 18 20 20 20 20 21 22 22 22 21 21 20 18 18 18 18 17 18 17 16 19 26 28 26 26 27 27 29 31 34 36 39 44 49 52 53 54 56 57 58 61 62 62 61 60 62 63 64 63 64 64 64 63 63 65 66 68 70 72 73 74 74 72
15 15 16 17 17 17 18 18 18 19 20 20 21 21 20 20 21 20 19 19 19 19 18 18 20 21 22 23 24 24 24 24 23 22 21 20 19 19 20 19 18 19 17 16 20 27 28 27 27 28 28 30 33 36 38 42 46 50 52 53 54 54 55 57 59 61 61 62 62 63 64 65 64 63 64 64 64 64 66 68 69 71 71 72 72 71 69
15 16 16 17 17 18 18 18 19 19 20 20 20 20 19 20 20 20 19 19 19 19 19 20 21 21 22 23 25 25 25 24 23 23 22 20 19 20 21 19 19 19 17 17 22 27 27 26 27 29 29 31 34 39 43 46 48 49 51 52 53 53 55 57 59 60 62 64 65 65 66 66 65 64 64 64 65 65 66 68 69 69 70 71 71 69 68
15 16 17 17 18 18 18 19 19 19 19 19 19 18 19 20 20 20 20 21 20 19 20 21 22 22 22 22 24 25 25 24 22 22 22 20 20 21 21 19 19 19 17 18 23 28 27 26 29 30 30 33 38 42 45 47 49 50 51 52 52 53 55 57 58 59 61 63 63 63 63 63 63 62 62 64 64 65 66 67 68 69 70 70 69 68 67
16 17 17 17 18 18 18 19 19 18 18 18 18 18 19 20 21 21 22 21 20 20 21 23 23 24 24 24 25 25 25 24 23 22 21 20 20 21 20 19 20 19 17 19 25 27 26 27 30 30 31 37 43 46 47 48 50 51 52 53 54 55 57 58 59 58 59 59 59 60 59 59 59 59 60 62 64 65 66 67 67 68 70 70 69 67 66
16 17 17 17 18 18 18 18 18 18 17 17 17 18 20 21 21 22 22 21 20 21 23 23 23 24 25 25 26 25 25 24 23 22 21 20 21 21 19 19 20 19 18 22 26 26 26 28 30 31 35 42 46 47 48 50 52 53 53 54 55 57 58 59 59 58 59 59 59 59 59 58 57 57 58 60 62 64 65 66 67 68 70 70 69 67 65
17 17 18 18 18 18 18 18 17 16 15 15 17 19 21 21 22 22 21 21 21 23 24 24 24 25 25 26 26 26 25 24 24 22 21 21 21 21 19 19 20 19 20 23 26 26 27 30 31 34 40 45 46 47 50 53 54 54 54 55 56 58 59 60 60 59 59 59 59 60 60 58 57 56 58 60 62 63 63 65 66 68 69 70 69 67 64
17 18 18 18 18 18 17 17 16 15 14 15 18 21 21 21 22 22 22 22 23 24 24 24 25 25 25 26 26 25 24 24 23 22 20 21 21 20 19 19 20 21 22 24 25 26 28 31 34 39 44 46 46 48 52 53 54 56 56 56 57 58 59 59 60 60 59 59 59 60 60 58 57 56 57 59 61 62 63 63 65 67 68 69 69 68 65
17 18 18 18 18 17 16 15 15 15 15 17 20 21 21 21 22 22 22 23 23 24 24 25 25 25 25 25 25 24 23 23 22 20 19 20 20 19 18 19 21 22 23 24 25 27 30 33 38 43 45 46 47 50 52 53 55 57 58 58 58 59 60 60 61 60 60 60 60 61 60 59 58 57 57 58 60 62 63 64 65 66 68 69 69 68 66
17 17 18 18 17 17 15 14 14 16 18 19 21 22 22 22 23 22 22 23 24 24 25 25 25 25 25 25 24 23 23 23 21 19 19 20 20 19 19 20 22 23 24 25 27 30 33 37 41 44 46 47 49 51 52 53 54 56 58 59 60 60 60 61 61 61 61 62 63 63 61 60 59 59 59 59 59 61 64 65 66 67 69 70 69 69 67
16 17 18 17 16 16 15 14 16 18 19 20 22 22 23 23 23 23 23 23 24 24 25 25 25 25 25 25 24 23 23 22 20 19 19 20 20 19 20 21 22 23 25 27 30 33 37 41 43 45 46 48 50 51 52 53 54 55 57 59 59 60 61 61 61 61 62 63 64 63 61 60 60 60 59 59 59 60 63 65 66 67 69 70 70 70 68
16 17 17 16 15 15 15 16 17 19 20 21 22 23 23 23 23 23 23 24 24 24 24 25 25 25 24 23 23 23 22 21 19 19 19 20 20 20 20 20 21 23 25 28 33 37 40 42 44 45 46 48 50 52 52 53 54 55 56 57 58 60 60 60 60 61 62 64 64 63 61 60 60 59 59 59 59 60 62 64 66 67 68 69 69 69 69
16 17 17 15 15 15 16 17 18 20 21 22 23 23 23 23 23 23 24 24 23 24 24 24 25 24 23 22 22 22 21 20 19 19 20 20 20 20 20 21 23 24 27 31 36 40 41 42 44 45 46 48 50 51 52 53 54 55 56 57 58 60 60 60 60 61 62 64 64 63 61 60 59 59 59 59 59 60 61 63 64 66 67 68 69 69 70
16 16 16 16 16 16 17 18 19 20 21 22 23 24 24 24 23 24 24 24 24 24 24 25 24 23 23 22 22 21 20 19 19 19 20 20 19 19 21 24 26 28 31 35 39 40 41 42 43 45 46 48 50 51 52 53 54 54 55 57 58 59 59 59 59 60 62 63 64 63 61 60 59 59 60 60 60 60 61 62 63 65 66 68 69 70 70
16 16 16 16 17 17 18 19 20 21 22 23 24 25 24 24 24 24 23 24 24 24 25 24 23 22 22 22 22 20 19 19 19 20 20 20 20 21 23 26 29 32 34 37 39 40 41 42 44 45 47 48 50 50 52 53 54 55 55 56 57 58 59 58 58 59 60 62 63 63 62 61 60 60 61 61 61 61 61 62 63 65 67 68 70 70 71
16 16 17 17 18 19 19 20 21 22 23 24 25 25 25 24 24 23 23 24 24 25 25 24 23 22 22 22 22 21 20 20 20 20 20 20 21 24 26 29 31 34 36 38 39 40 41 42 44 46 48 49 50 50 52 53 54 55 55 56 57 58 58 58 58 59 60 61 61 62 62 62 62 61 61 61 61 61 61 62 63 64 66 68 70 70 71
17 17 18 18 19 19 20 21 22 23 24 25 25 25 25 24 24 24 24 24 24 24 24 23 22 21 21 22 22 22 21 21 20 21 22 22 23 26 29 31 33 36 37 39 40 40 41 42 43 46 48 49 50 51 52 54 54 55 56 56 57 58 58 58 58 59 59 60 61 61 61 62 62 61 61 61 61 62 63 63 64 64 65 67 69 70 70
Wind_Direction
87 87 85 85 84 83 85 88 89 89 86 83 85 90 92 88 83 80 76 74 77 75 72 73 73 77 80 79 80 78 73 68 63 59 56 53 48 46 44 38 37 36 32 32 29 23 21 18 17 12 7 4 358 357 356 353 352 351 348 347 346 345 340 335 334 336 339 342 346 346 344 341 338 336 333 328 324 318 305 292 291 288 284 284 272 254 288
90 91 90 88 87 87 90 92 90 89 88 86 87 88 87 83 80 79 72 69 75 76 70 70 74 76 78 79 77 73 69 65 62 59 57 53 49 46 44 40 38 36 32 30 27 23 20 16 14 12 8 2 359 357 355 356 356 352 348 347 346 345 341 336 336 338 339 341 344 344 341 339 335 334 333 327 325 325 317 308 297 280 282 288 273 249 280
94 94 93 90 89 89 89 90 88 87 86 85 85 81 76 76 77 77 75 70 69 72 71 67 65 71 77 76 72 69 67 64 61 59 56 52 50 46 44 42 39 34 30 26 24 22 20 15 11 10 6 2 0 357 355 357 357 354 352 349 346 343 339 337 335 328 327 325 328 332 331 330 333 335 334 330 327 326 322 313 298 276 290 294 277 270 287
94 93 91 89 88 87 86 85 83 82 81 80 79 75 69 71 75 78 80 74 63 66 71 65 60 66 71 72 71 67 66 64 61 58 55 52 49 48 45 40 36 32 27 25 23 19 17 14 10 7 4 2 360 357 355 355 356 356 354 350 348 343 339 340 334 320 316 314 321 328 326 322 325 330 333 333 329 327 326 316 298 291 299 294 284 289 304
91 90 89 87 85 83 81 79 77 76 75 73 72 70 68 70 73 75 78 75 66 66 69 65 60 63 66 69 70 67 65 63 59 56 54 51 48 46 42 36 32 29 23 22 22 18 16 14 8 6 4 1 359 356 354 355 356 355 353 350 347 341 339 341 335 327 328 326 328 334 330 321 322 326 329 329 326 327 326 315 308 312 308 293 295 308 317
89 88 87 87 85 82 78 75 71 68 67 67 65 63 65 69 69 68 71 73 71 69 69 67 64 62 64 66 68 68 66 63 60 56 52 48 43 38 36 32 27 25 20 18 17 14 13 12 9 6 2 359 358 355 354 356 356 354 350 347 344 341 340 340 334 330 333 334 334 336 332 326 327 326 322 320 322 328 325 314 314 322 314 298 307 318 324
87 84 83 81 79 78 77 74 70 64 60 62 61 57 61 67 67 65 68 72 71 68 68 70 68 63 61 64 66 66 63 60 58 54 48 43 37 33 32 29 25 22 19 16 14 12 9 7 5 3 360 357 355 355 356 357 353 350 347 345 344 342 339 340 335 330 333 339 339 336 331 329 328 323 314 315 323 323 319 316 317 320 319 314 316 324 330
86 83 79 75 71 70 69 70 70 67 59 57 58 58 61 66 66 62 63 69 70 68 67 70 70 63 58 63 65 61 58 56 54 51 45 38 34 31 28 27 23 20 17 14 12 11 8 4 1 359 357 355 354 354 355 354 349 346 345 344 343 341 338 340 336 328 332 343 341 334 332 331 324 310 292 305 317 318 319 322 323 324 324 320 318 324 330
86 82 78 74 70 67 65 64 67 69 64 55 54 62 65 65 64 57 52 63 69 68 68 69 66 61 58 60 61 56 53 51 49 46 42 35 32 27 22 21 19 16 15 12 8 7 5 2 360 357 354 354 353 352 352 351 346 345 345 343 343 341 338 340 338 326 329 342 341 334 334 330 316 295 296 315 323 327 332 335 336 330 321 321 329 333 335
83 80 77 73 70 67 64 61 61 65 66 59 54 60 63 61 61 54 43 58 70 68 65 64 59 58 59 57 55 53 49 47 44 40 38 33 29 24 18 14 12 10 9 7 5 3 0 358 357 356 354 353 352 353 353 350 345 345 346 344 344 344 339 339 338 323 325 338 340 333 333 332 317 307 323 331 334 335 335 337 339 333 320 325 338 338 335
81 78 75 73 70 67 63 60 57 58 63 62 55 57 58 55 58 54 42 54 71 68 60 58 55 55 58 55 53 51 46 44 40 34 32 28 23 21 16 10 8 7 5 2 1 358 356 355 355 355 356 355 355 357 354 350 348 348 348 344 344 345 340 338 335 318 321 334 337 332 333 333 305 306 326 342 346 345 340 335 338 339 326 315 322 327 330
79 76 74 71 68 66 62 59 56 53 56 58 53 52 55 54 55 56 46 51 70 70 58 54 54 55 57 54 51 48 43 39 34 27 23 18 14 13 10 7 6 4 1 359 356 354 353 353 354 357 359 358 0 4 356 352 353 352 350 347 344 344 341 337 331 319 320 329 333 334 334 323 306 297 306 325 329 333 332 328 334 338 325 310 318 325 327
81 78 75 71 68 64 61 57 55 49 50 54 51 48 53 53 52 54 49 49 62 68 57 52 53 54 53 50 46 40 35 29 22 17 14 9 5 4 2 2 2 360 358 355 354 352 351 352 355 359 1 1 3 6 360 355 355 353 351 348 345 345 343 338 332 325 322 326 327 325 318 312 302 289 298 313 320 330 333 330 333 336 320 313 325 326 325
84 80 77 72 68 63 57 53 51 47 47 51 49 45 49 50 48 49 48 45 53 59 53 49 49 46 43 42 37 30 24 18 11 8 7 2 359 357 356 357 357 356 355 354 353 353 354 355 356 358 0 2 2 0 358 355 354 353 351 348 347 347 343 337 333 327 321 316 310 309 312 310 305 308 326 338 341 343 342 333 331 331 317 318 326 326 325
84 80 75 71 66 61 55 51 48 46 44 46 46 43 43 44 42 43 44 42 45 47 46 43 40 36 32 29 26 20 14 9 3 0 359 357 354 353 353 355 355 354 354 354 355 355 356 358 359 358 360 1 356 352 352 352 352 352 350 348 348 346 343 339 330 320 319 314 308 312 314 310 319 328 338 344 341 338 336 329 324 321 320 324 328 328 327
83 77 72 69 64 59 53 48 44 42 40 41 41 39 37 37 37 36 37 36 36 38 38 32 28 27 20 14 14 10 4 358 354 352 353 354 352 351 353 355 354 353 354 356 357 357 357 360 1 358 357 357 351 345 346 348 348 350 349 346 346 345 342 338 329 321 323 320 309 310 307 302 320 330 334 337 334 331 331 327 319 322 327 329 329 328 327
80 73 68 64 61 56 50 44 39 36 35 35 36 34 32 33 33 30 29 26 24 29 31 20 11 10 6 2 3 0 356 352 349 348 349 350 350 350 353 354 353 353 355 356 357 358 359 360 358 356 356 356 350 345 346 346 344 346 346 344 345 343 339 338 332 326 330 326 311 308 307 305 315 325 328 331 330 331 333 327 319 327 330 329 327 326 325
76 69 61 57 57 54 47 40 34 30 28 28 29 28 26 27 25 23 22 17 13 17 19 8 356 351 351 354 353 351 350 349 349 348 346 346 350 352 352 352 353 355 356 356 357 358 0 0 356 354 355 354 349 345 346 345 342 343 344 343 342 341 338 336 332 327 331 329 317 314 311 304 309 317 323 329 333 335 336 325 321 326 327 325 325 325 324
73 64 55 51 52 51 43 36 29 25 23 22 22 22 20 20 19 17 15 11 8 10 7 357 349 342 343 347 347 345 347 348 349 349 347 349 352 354 352 352 355 357 357 357 357 357 359 359 357 353 351 350 349 346 343 344 343 343 344 342 339 337 334 332 330 329 331 328 322 319 313 308 316 321 326 333 337 335 328 322 322 324 324 324 326 326 326
71 59 48 43 46 46 39 32 25 22 20 18 18 19 17 16 15 12 10 8 7 6 1 353 347 340 340 342 343 345 348 349 349 349 351 354 355 355 354 355 357 358 357 357 357 357 356 357 355 353 349 346 347 346 345 346 347 345 343 340 334 332 332 332 333 333 330 326 326 324 314 316 323 327 330 335 336 328 324 324 324 324 326 327 328 328 328
69 54 40 36 38 39 34 27 22 21 19 17 17 18 15 13 12 8 6 8 7 4 0 356 349 343 343 344 345 348 350 349 350 352 355 358 358 358 359 358 357 357 356 355 356 355 354 353 352 351 347 345 347 348 346 347 347 342 339 336 333 334 336 336 336 334 329 324 322 320 317 320 325 329 332 333 331 327 327 326 326 328 330 331 329 328 328
65 46 32 27 29 31 28 23 19 19 18 17 17 16 13 12 11 7 6 9 8 5 6 5 355 349 349 349 349 351 352 351 353 355 358 0 0 359 359 357 356 356 355 353 352 352 351 350 349 350 350 349 350 350 347 345 344 340 337 337 336 334 331 331 330 327 322 320 320 322 323 325 328 331 331 330 329 330 331 330 330 330 331 331 329 328 327
57 38 24 18 19 22 21 17 15 16 16 15 14 13 12 13 10 8 9 10 7 7 9 6 358 352 352 352 350 352 354 356 357 358 358 360 359 358 357 356 355 355 353 351 350 350 349 349 350 353 355 352 350 349 347 344 340 338 336 334 330 325 325 328 327 322 321 323 325 327 328 328 330 331 331 330 331 334 334 332 330 330 331 331 329 328 327
45 29 17 12 12 14 15 13 11 13 14 13 11 11 12 11 9 8 9 8 7 8 8 3 358 355 352 351 353 356 359 360 360 359 358 358 357 356 356 355 353 353 352 351 349 348 349 350 354 356 356 354 351 350 347 340 336 335 331 326 324 325 327 327 325 323 327 330 330 330 329 329 331 332 332 333 334 335 334 332 331 331 331 330 329 328 329
25 19 10 6 6 7 9 7 8 11 12 10 10 10 9 8 7 8 8 7 7 8 7 2 360 357 354 354 356 0 2 2 0 359 357 356 356 355 354 354 352 351 351 350 348 349 351 354 356 357 356 354 352 350 345 336 333 332 326 323 326 329 329 327 324 326 329 331 331 331 328 327 330 332 334 335 335 334 333 332 331 332 331 330 330 331 331
2 7 3 1 2 2 2 2 5 9 10 9 8 8 6 5 6 7 6 7 7 7 6 5 3 359 358 359 1 2 2 2 0 358 357 356 354 353 351 351 351 351 350 349 349 352 355 358 357 355 354 353 352 350 345 337 333 328 321 319 323 325 326 327 327 327 329 331 333 332 328 327 331 335 336 335 335 334 333 333 333 333 332 332 332 332 333
345 354 357 359 359 356 355 360 3 7 9 8 6 4 4 5 5 5 5 6 6 6 7 6 3 2 2 4 5 3 1 0 358 356 356 354 352 349 349 349 351 351 350 350 352 355 357 358 356 354 353 354 354 351 346 340 335 327 319 319 324 328 332 336 334 332 332 333 335 335 331 330 334 337 337 336 336 334 333 334 334 334 334 334 333 333 333
331 347 357 358 355 351 351 356 1 5 8 6 3 4 5 4 2 2 5 6 6 7 9 7 5 8 9 7 4 1 360 359 357 354 353 352 349 347 348 349 351 351 351 352 354 356 357 356 355 355 355 355 355 353 347 342 336 330 325 327 331 335 339 340 339 336 333 333 334 336 334 333 334 336 336 336 336 335 334 335 335 335 335 335 334 333 333
325 345 357 356 352 350 349 354 360 3 3 2 3 4 3 0 0 3 4 5 6 8 11 10 9 10 10 6 2 0 359 358 354 352 350 349 347 347 349 351 352 352 353 353 354 356 356 355 356 357 357 356 357 355 350 345 339 335 333 332 331 332 334 335 336 335 333 333 335 337 336 335 334 334 335 337 337 336 335 335 336 336 336 335 335 334 334
325 345 355 353 349 346 346 352 357 357 358 0 3 2 360 358 1 3 2 3 6 8 10 10 9 8 5 2 0 359 357 355 352 349 348 347 348 350 351 352 353 352 352 353 353 354 355 355 357 358 358 357 358 356 352 348 344 339 336 334 332 332 332 333 335 336 336 337 337 335 334 334 334 334 336 339 339 337 336 337 338 338 337 336 335 335 335
326 343 350 348 344 341 342 345 348 351 355 359 0 360 358 358 1 1 0 2 5 6 7 7 7 5 0 357 357 355 353 352 350 348 348 349 350 352 353 352 352 352 351 353 354 354 355 356 357 359 360 359 358 357 355 351 346 342 340 339 336 334 333 333 334 336 337 338 337 333 332 334 335 336 339 341 341 339 338 338 338 338 337 336 336 337 337
328 341 345 343 341 340 340 341 344 348 351 354 356 357 358 358 359 359 359 1 2 3 4 4 4 4 360 354 352 351 350 351 350 348 349 351 352 352 353 353 353 352 352 355 356 354 355 357 358 359 1 1 360 359 356 350 346 344 343 340 336 334 333 334 334 335 337 338 337 336 335 337 339 339 340 341 341 341 340 339 339 338 337 336 337 338 338
330 339 341 341 341 340 340 341 342 344 345 348 353 356 357 357 357 357 358 359 359 359 360 359 360 2 358 352 348 346 347 349 350 349 350 353 354 355 355 354 355 355 355 356 357 355 355 357 359 360 0 0 0 359 354 348 346 345 341 337 335 334 334 334 335 336 337 338 339 339 339 339 340 340 341 341 341 341 340 340 340 338 337 338 339 339 339
332 337 340 341 341 340 339 339 340 342 345 349 353 354 354 355 357 356 356 356 356 356 357 356 357 359 356 348 345 344 345 347 351 352 353 354 356 358 359 358 358 359 357 356 356 355 356 358 359 359 359 359 359 357 351 349 348 344 338 335 335 335 335 336 336 337 338 338 340 341 341 340 340 340 341 342 342 341 341 342 342 341 340 340 340 340 339
333 338 340 340 339 337 336 338 340 343 347 348 349 350 352 355 356 355 353 353 353 352 353 353 352 353 351 347 345 346 347 349 352 353 354 355 357 359 360 359 360 0 359 357 356 356 356 358 358 356 356 358 358 355 352 350 346 339 336 335 337 337 338 338 337 338 338 339 340 341 342 342 341 341 342 344 344 343 343 344 344 344 343 341 340 340 339
334 337 337 336 335 335 336 339 341 342 343 344 345 348 351 353 354 352 351 350 349 349 350 352 351 349 348 347 347 348 350 352 354 354 354 355 357 359 359 359 0 1 360 358 357 356 356 357 356 353 353 355 356 355 352 347 341 336 336 338 339 339 338 338 338 338 338 339 340 342 343 343 343 343 343 344 345 345 345 346 346 345 343 341 340 340 339
334 335 333 332 332 333 335 338 339 338 339 341 344 347 349 350 351 351 349 347 346 347 349 352 352 349 347 347 347 348 350 352 353 354 355 355 357 358 359 359 1 1 359 357 357 356 356 355 353 351 352 354 354 351 348 342 338 337 338 339 340 339 339 339 339 339 339 339 341 343 344 344 344 344 344 345 346 346 347 348 347 345 343 341 341 340 339
331 330 329 329 330 331 334 336 336 336 337 340 343 345 346 347 348 347 345 343 344 346 349 350 350 350 349 346 345 345 348 351 352 352 353 355 358 358 358 359 0 359 358 356 356 356 355 353 350 349 351 353 350 346 343 339 338 339 339 340 341 341 340 340 341 342 341 341 343 345 345 344 344 345 345 346 347 348 348 348 346 344 343 342 342 341 341
326 325 326 327 329 331 333 334 334 335 336 338 341 344 345 345 344 343 343 343 344 345 347 348 349 349 348 347 345 344 346 350 353 352 352 355 358 358 357 357 358 357 356 355 354 354 354 351 349 349 349 348 345 342 339 338 339 341 342 342 342 342 341 342 343 344 343 342 343 345 346 345 344 345 346 346 347 348 348 347 344 343 344 344 343 343 343
322 323 325 327 329 330 331 332 333 334 335 338 340 342 342 343 343 343 343 344 344 345 346 347 348 348 346 346 346 345 346 349 353 353 352 354 357 358 357 355 355 356 356 353 352 353 351 349 349 348 346 344 342 340 338 338 340 343 344 344 343 342 342 343 344 344 343 342 343 345 346 346 345 346 346 347 347 348 348 346 344 344 345 346 346 346 343
321 323 325 326 327 329 331 332 333 334 335 337 339 341 341 342 343 344 343 343 343 344 344 344 345 346 344 344 345 346 347 348 350 351 352 354 356 357 357 356 355 356 353 350 350 350 348 348 348 346 343 342 341 338 337 339 342 344 345 344 343 344 344 345 344 344 343 344 345 346 346 347 347 347 348 348 348 348 346 345 344 345 347 348 348 347 343
321 323 325 327 328 329 331 331 332 334 336 336 338 341 342 343 344 344 343 342 341 341 341 342 342 343 343 343 344 346 346 347 348 350 351 352 354 355 356 355 354 353 349 347 347 348 346 346 345 343 341 341 339 337 338 341 344 344 344 344 344 345 346 345 344 344 345 345 346 347 347 347 348 349 349 348 347 346 346 345 345 346 348 349 350 347 344
323 324 326 327 328 329 330 331 332 334 336 337 339 342 343 343 343 342 340 338 337 337 338 339 340 341 342 342 343 344 345 344 345 347 349 350 351 352 353 353 350 348 346 346 346 346 345 344 343 341 340 339 338 338 340 343 344 343 343 343 345 346 346 345 344 344 345 346 347 348 348 348 348 350 351 349 346 345 345 346 347 348 349 350 351 349 346
323 325 327 327 327 329 330 330 330 334 338 340 341 342 342 341 341 340 337 334 334 335 336 337 338 339 340 342 342 343 343 343 343 345 348 349 349 349 349 348 346 344 344 345 344 344 344 343 341 340 339 338 338 340 341 343 343 342 342 344 346 347 346 345 345 345 345 346 348 349 349 349 349 350 351 350 346 345 346 348 349 349 350 351 352 351 348
322 324 325 326 327 329 332 333 333 336 340 342 341 341 341 340 339 337 334 333 333 333 334 335 336 337 339 341 342 342 342 341 341 342 345 346 347 345 344 344 344 344 344 343 342 342 343 342 340 339 339 338 339 340 341 342 342 341 341 344 346 347 346 345 346 346 346 347 349 350 350 350 350 350 351 350 347 346 348 350 351 351 351 352 352 351 350
321 323 325 326 327 329 333 337 338 339 340 341 341 342 341 339 336 334 332 331 331 332 332 334 336 336 337 339 340 341 340 339 338 340 342 344 345 343 342 343 344 343 342 341 340 340 341 341 340 339 339 339 339 340 341 342 342 342 342 344 346 347 346 346 346 347 347 348 349 350 351 350 350 349 349 348 348 348 350 351 352 352 352 353 353 352 351
320 323 325 327 328 329 332 336 338 338 339 341 342 342 340 337 334 332 330 329 330 331 332 333 333 334 336 338 338 338 338 336 336 338 340 342 342 342 341 341 342 340 338 337 337 338 340 341 340 338 338 338 338 339 340 342 342 342 343 344 345 346 346 346 346 348 348 349 350 351 352 351 350 348 348 348 349 350 351 352 352 352 353 353 354 354 353
320 322 324 326 327 328 331 334 336 337 340 342 342 341 339 335 332 329 328 328 329 330 331 331 332 333 335 337 336 336 335 334 335 338 339 339 340 340 339 339 338 336 335 335 335 336 339 340 339 337 337 338 337 338 340 342 342 342 343 344 345 346 346 346 347 348 349 349 351 352 353 351 349 348 348 348 350 351 352 352 352 352 352 353 354 356 356
317 320 322 323 324 326 330 333 335 337 340 342 342 340 337 334 330 328 327 328 329 330 330 330 331 333 334 335 334 333 333 334 335 336 337 337 337 335 335 336 336 334 333 334 335 336 338 339 337 336 336 337 338 339 341 341 341 342 343 344 345 345 345 345 347 348 349 350 352 354 354 351 349 348 348 349 350 351 352 352 352 352 352 353 355 357 358
315 318 319 320 322 326 329 332 335 337 340 342 341 339 336 332 329 327 327 327 328 329 328 328 330 332 333 333 332 331 331 332 334 334 335 335 334 331 332 334 334 332 332 333 334 336 338 339 337 335 336 337 338 340 341 341 341 342 343 343 344 345 345 345 347 348 348 350 352 354 354 353 350 348 349 350 351 351 351 352 352 352 353 353 355 357 359
312 315 316 318 322 326 329 331 334 337 339 340 340 338 334 330 328 327 327 327 327 327 326 327 329 331 331 331 330 328 327 328 331 334 334 333 331 329 330 333 333 331 331 333 334 336 338 339 336 334 336 338 339 340 340 340 341 342 342 343 344 344 344 345 347 347 348 349 351 353 354 353 352 350 350 350 351 350 350 351 351 352 352 353 354 356 358
310 312 315 318 321 324 327 330 332 335 337 338 337 335 332 329 327 326 326 326 325 325 325 325 327 328 328 327 326 325 324 324 328 332 333 331 329 328 330 331 330 330 331 333 336 337 338 338 335 334 336 338 340 340 339 339 340 341 342 343 343 344 344 345 346 347 347 347 348 350 351 352 352 351 351 351 351 351 351 351 351 352 352 352 353 354 357
Height
3174 3174 3174 3174 3174 3174 3174 3174 3174 3173 3173 3173 3173 3174 3174 3174 3172 3173 3173 3172 3171 3173 3173 3172 3171 3171 3171 3172 3172 3173 3173 3173 3173 3173 3172 3172 3171 3170 3170 3168 3167 3166 3165 3164 3162 3161 3159 3158 3156 3155 3153 3152 3151 3149 3147 3145 3143 3142 3140 3138 3136 3133 3130 3126 3121 3117 3115 3115 3115 3114 3112 3109 3106 3104 3102 3101 3099 3098 3097 3092 3088 3085 3077 3074 3074 3067 3057
3176 3176 3176 3176 3176 3176 3176 3176 3176 3175 3175 3175 3176 3176 3176 3175 3174 3174 3175 3174 3174 3174 3174 3174 3174 3173 3173 3173 3174 3174 3174 3174 3174 3174 3173 3172 3172 3171 3170 3169 3168 3167 3165 3164 3163 3161 3159 3158 3157 3156 3154 3152 3151 3149 3148 3146 3144 3142 3140 3138 3136 3133 3131 3129 3124 3118 3113 3110 3109 3108 3107 3105 3103 3101 3099 3097 3096 3095 3092 3088 3086 3082 3073 3071 3070 3060 3051
3178 3178 3178 3178 3178 3178 3178 3178 3178 3178 3177 3177 3178 3178 3178 3176 3176 3176 3176 3176 3177 3175 3175 3176 3175 3175 3175 3175 3175 3175 3175 3175 3175 3175 3174 3173 3172 3171 3170 3169 3168 3167 3166 3164 3163 3162 3161 3159 3158 3157 3155 3153 3152 3150 3148 3146 3144 3142 3140 3138 3136 3133 3132 3130 3128 3126 3122 3116 3113 3110 3106 3104 3101 3099 3097 3095 3093 3092 3088 3084 3082 3077 3070 3068 3062 3051 3047
3180 3180 3180 3180 3180 3180 3180 3180 3180 3180 3180 3180 3180 3180 3180 3178 3177 3177 3177 3178 3178 3176 3176 3177 3177 3176 3176 3176 3176 3176 3176 3176 3176 3175 3174 3174 3173 3172 3171 3170 3169 3168 3167 3165 3164 3163 3162 3160 3159 3158 3156 3154 3152 3150 3148 3146 3144 3142 3139 3137 3134 3132 3130 3129 3128 3127 3125 3121 3117 3114 3110 3106 3101 3097 3095 3093 3091 3089 3085 3081 3078 3074 3068 3063 3056 3050 3046
3183 3183 3183 3183 3183 3183 3183 3183 3183 3183 3182 3182 3182 3181 3181 3180 3179 3179 3178 3179 3179 3178 3178 3179 3178 3178 3178 3177 3177 3177 3177 3176 3176 3176 3175 3174 3174 3173 3172 3171 3170 3169 3168 3166 3165 3164 3163 3162 3160 3158 3156 3154 3152 3150 3148 3146 3144 3141 3139 3137 3134 3131 3128 3127 3125 3123 3121 3118 3114 3112 3109 3105 3100 3096 3092 3090 3087 3085 3081 3077 3074 3071 3066 3058 3052 3050 3046
3185 3186 3186 3186 3186 3186 3186 3185 3185 3185 3185 3184 3184 3183 3182 3181 3180 3180 3180 3180 3180 3180 3180 3180 3180 3179 3179 3178 3178 3178 3178 3177 3177 3176 3176 3175 3174 3173 3172 3171 3170 3169 3168 3167 3165 3164 3163 3162 3160 3158 3156 3154 3152 3150 3147 3145 3143 3141 3139 3136 3134 3131 3127 3124 3121 3118 3116 3114 3111 3109 3106 3102 3098 3095 3091 3087 3084 3081 3078 3074 3070 3068 3064 3057 3051 3049 3045
3188 3188 3188 3188 3188 3188 3188 3188 3187 3187 3187 3186 3185 3184 3183 3182 3182 3182 3182 3182 3182 3182 3181 3181 3181 3181 3180 3179 3179 3179 3178 3178 3177 3177 3176 3176 3175 3174 3173 3172 3171 3169 3168 3167 3165 3163 3162 3160 3158 3157 3155 3152 3150 3148 3146 3144 3142 3141 3138 3136 3133 3130 3126 3123 3118 3114 3112 3111 3108 3105 3102 3099 3095 3092 3088 3085 3083 3079 3075 3071 3067 3065 3061 3056 3051 3047 3044
3191 3191 3191 3191 3191 3191 3190 3190 3189 3189 3188 3187 3187 3186 3184 3184 3183 3184 3184 3183 3183 3183 3182 3182 3182 3182 3181 3180 3180 3180 3179 3179 3178 3178 3177 3177 3176 3175 3174 3172 3171 3170 3169 3167 3166 3164 3162 3160 3158 3155 3154 3151 3149 3146 3145 3143 3142 3140 3138 3135 3132 3129 3125 3122 3117 3111 3107 3107 3106 3102 3099 3096 3091 3087 3085 3082 3079 3076 3072 3068 3064 3060 3057 3053 3048 3043 3039
3193 3193 3193 3193 3193 3193 3193 3192 3191 3190 3189 3189 3189 3187 3186 3185 3185 3185 3185 3184 3184 3184 3183 3183 3183 3183 3182 3181 3181 3181 3180 3179 3179 3178 3178 3177 3176 3175 3174 3173 3172 3171 3169 3168 3166 3165 3163 3161 3158 3156 3154 3151 3148 3146 3144 3142 3140 3139 3137 3134 3132 3129 3124 3121 3117 3109 3104 3104 3102 3098 3096 3093 3087 3083 3081 3079 3076 3073 3070 3067 3062 3058 3054 3049 3045 3040 3035
3196 3196 3196 3196 3196 3195 3195 3194 3193 3192 3191 3191 3190 3189 3188 3187 3186 3186 3186 3185 3184 3185 3184 3184 3184 3183 3183 3183 3182 3182 3181 3180 3180 3179 3178 3177 3176 3175 3174 3173 3172 3170 3169 3168 3166 3164 3162 3160 3158 3156 3154 3151 3149 3146 3144 3142 3140 3137 3135 3133 3130 3128 3123 3120 3117 3109 3102 3101 3099 3094 3091 3088 3084 3082 3080 3077 3075 3072 3069 3066 3062 3058 3053 3047 3042 3038 3033
3198 3198 3198 3198 3198 3197 3197 3196 3195 3194 3193 3193 3191 3190 3189 3188 3187 3187 3187 3186 3185 3186 3186 3185 3185 3184 3184 3183 3183 3182 3182 3181 3180 3179 3178 3177 3176 3175 3174 3173 3171 3170 3168 3166 3165 3163 3161 3159 3157 3155 3153 3150 3148 3146 3144 3142 3139 3137 3134 3131 3129 3126 3123 3119 3117 3110 3102 3098 3097 3092 3088 3085 3083 3082 3080 3077 3074 3071 3067 3063 3060 3056 3052 3047 3042 3036 3030
3201 3201 3200 3200 3200 3199 3199 3198 3197 3196 3195 3193 3192 3191 3190 3190 3189 3188 3188 3187 3186 3186 3187 3186 3185 3185 3184 3184 3183 3182 3182 3181 3180 3179 3178 3177 3176 3175 3174 3172 3170 3169 3167 3165 3163 3162 3160 3158 3156 3153 3151 3148 3146 3144 3142 3140 3138 3136 3133 3131 3128 3125 3122 3118 3115 3110 3102 3097 3096 3092 3088 3086 3083 3080 3078 3076 3073 3069 3064 3061 3059 3055 3050 3045 3039 3033 3027
3203 3203 3202 3202 3202 3201 3200 3199 3199 3198 3196 3194 3194 3193 3192 3191 3190 3190 3189 3188 3187 3187 3187 3186 3186 3185 3185 3184 3184 3183 3182 3182 3181 3179 3178 3177 3176 3175 3173 3172 3170 3168 3166 3164 3162 3160 3157 3155 3152 3150 3148 3146 3143 3142 3141 3138 3136 3134 3132 3130 3126 3123 3120 3116 3113 3109 3102 3098 3098 3095 3090 3086 3083 3078 3075 3072 3068 3065 3060 3055 3054 3053 3048 3041 3035 3028 3023
3205 3205 3204 3204 3203 3202 3202 3201 3199 3198 3197 3196 3195 3194 3193 3192 3192 3191 3190 3189 3188 3188 3188 3187 3186 3186 3185 3185 3184 3183 3182 3181 3180 3179 3178 3177 3176 3174 3173 3171 3169 3167 3165 3163 3160 3158 3154 3151 3148 3146 3144 3141 3139 3138 3138 3136 3134 3133 3130 3128 3125 3122 3119 3115 3111 3107 3103 3099 3097 3094 3088 3084 3080 3075 3073 3071 3067 3064 3059 3051 3048 3049 3047 3039 3031 3023 3018
3206 3206 3206 3205 3204 3204 3203 3202 3201 3199 3198 3197 3196 3195 3194 3193 3193 3191 3191 3190 3189 3189 3188 3188 3187 3186 3185 3185 3184 3183 3182 3181 3180 3179 3178 3176 3175 3174 3172 3170 3168 3166 3164 3162 3159 3156 3153 3150 3147 3144 3141 3139 3138 3136 3135 3134 3133 3131 3129 3126 3123 3120 3117 3114 3110 3107 3104 3100 3095 3091 3085 3081 3078 3074 3073 3072 3067 3064 3061 3054 3047 3046 3044 3037 3028 3020 3013
3208 3208 3207 3206 3205 3205 3204 3203 3201 3200 3199 3198 3197 3196 3195 3194 3193 3192 3191 3190 3190 3189 3188 3188 3187 3186 3185 3185 3184 3183 3182 3181 3180 3178 3177 3176 3174 3173 3171 3169 3167 3165 3163 3161 3158 3156 3153 3150 3148 3146 3144 3142 3140 3138 3135 3133 3130 3129 3127 3124 3121 3119 3116 3114 3110 3105 3103 3101 3097 3093 3087 3080 3076 3073 3070 3069 3065 3061 3058 3051 3044 3042 3039 3032 3025 3018 3010
3209 3209 3208 3207 3206 3205 3204 3203 3202 3201 3200 3199 3198 3197 3196 3194 3193 3193 3192 3191 3190 3189 3188 3187 3187 3186 3185 3184 3183 3183 3182 3181 3179 3178 3176 3175 3174 3172 3170 3169 3167 3165 3162 3160 3158 3155 3152 3149 3147 3146 3144 3142 3141 3139 3136 3133 3129 3127 3125 3122 3119 3117 3114 3111 3109 3105 3103 3101 3097 3094 3088 3081 3076 3072 3069 3067 3063 3059 3054 3044 3035 3034 3034 3028 3022 3015 3008
3210 3209 3209 3208 3207 3206 3205 3204 3203 3202 3201 3199 3198 3197 3196 3194 3194 3193 3192 3191 3190 3189 3188 3187 3186 3185 3185 3184 3183 3182 3181 3180 3179 3177 3176 3174 3173 3171 3170 3168 3166 3164 3161 3159 3156 3153 3151 3149 3146 3144 3143 3142 3141 3139 3137 3135 3131 3127 3125 3121 3118 3115 3112 3110 3108 3104 3102 3099 3095 3092 3088 3081 3076 3072 3069 3064 3058 3055 3055 3046 3035 3031 3029 3025 3019 3013 3006
3210 3210 3209 3209 3208 3207 3206 3205 3204 3202 3201 3199 3198 3197 3196 3195 3194 3192 3191 3190 3189 3188 3187 3186 3186 3185 3184 3183 3182 3181 3180 3179 3178 3176 3175 3173 3172 3170 3169 3167 3165 3162 3160 3157 3155 3152 3150 3149 3146 3144 3143 3141 3140 3138 3136 3135 3132 3128 3125 3121 3118 3115 3112 3110 3107 3103 3100 3097 3094 3090 3085 3080 3076 3072 3069 3064 3057 3053 3053 3048 3039 3032 3027 3021 3015 3008 3002
3211 3211 3210 3209 3208 3207 3206 3205 3204 3203 3201 3200 3199 3197 3196 3195 3193 3192 3191 3190 3188 3187 3187 3186 3185 3184 3183 3183 3182 3180 3179 3178 3177 3175 3174 3172 3171 3169 3167 3165 3163 3161 3158 3156 3154 3151 3149 3148 3146 3144 3143 3141 3140 3138 3135 3134 3131 3128 3125 3122 3119 3115 3112 3109 3106 3102 3098 3095 3093 3089 3083 3077 3073 3069 3065 3063 3060 3055 3049 3041 3035 3029 3023 3016 3009 3003 2997
3211 3211 3210 3210 3209 3208 3207 3206 3205 3204 3202 3201 3199 3197 3196 3194 3193 3192 3191 3190 3188 3187 3186 3185 3184 3183 3183 3182 3181 3180 3178 3177 3176 3174 3173 3172 3170 3168 3166 3164 3162 3160 3157 3155 3153 3151 3149 3148 3146 3145 3143 3141 3139 3137 3135 3132 3130 3128 3125 3123 3119 3115 3112 3109 3106 3103 3099 3095 3092 3090 3084 3078 3073 3069 3063 3060 3058 3053 3044 3035 3026 3021 3017 3011 3003 2996 2991
3212 3211 3211 3210 3209 3208 3207 3207 3205 3204 3203 3201 3199 3198 3196 3195 3194 3192 3190 3189 3187 3186 3185 3184 3184 3183 3182 3181 3180 3179 3178 3176 3175 3174 3172 3171 3170 3168 3166 3164 3162 3160 3157 3155 3153 3151 3150 3148 3146 3145 3143 3140 3138 3136 3134 3131 3129 3127 3124 3121 3118 3115 3113 3110 3108 3105 3102 3097 3092 3087 3082 3077 3072 3068 3062 3056 3051 3046 3039 3030 3021 3014 3010 3005 2998 2990 2984
3212 3211 3211 3210 3209 3208 3208 3207 3205 3204 3203 3201 3200 3198 3196 3195 3193 3191 3189 3188 3187 3186 3185 3184 3183 3182 3181 3180 3179 3178 3177 3176 3175 3173 3172 3171 3169 3168 3166 3164 3162 3159 3157 3155 3153 3151 3149 3148 3146 3144 3142 3140 3138 3136 3133 3130 3128 3126 3123 3120 3118 3115 3112 3109 3106 3102 3098 3094 3089 3083 3078 3072 3068 3063 3058 3051 3044 3038 3031 3023 3015 3009 3004 2999 2992 2985 2978
3212 3211 3211 3210 3209 3208 3208 3207 3206 3204 3203 3201 3200 3198 3196 3194 3192 3191 3189 3188 3187 3185 3184 3183 3183 3182 3181 3180 3179 3178 3177 3175 3174 3173 3172 3170 3169 3167 3165 3163 3160 3158 3156 3154 3152 3150 3148 3146 3145 3143 3142 3140 3138 3136 3133 3130 3128 3126 3123 3120 3117 3115 3111 3107 3102 3097 3092 3087 3083 3078 3071 3065 3061 3056 3050 3044 3038 3031 3024 3017 3009 3002 2997 2991 2986 2979 2972
3212 3211 3211 3210 3209 3208 3207 3207 3206 3204 3203 3201 3199 3197 3196 3194 3192 3191 3189 3188 3186 3185 3184 3183 3182 3181 3180 3179 3178 3177 3176 3175 3174 3173 3171 3170 3168 3166 3164 3162 3160 3157 3155 3153 3151 3149 3147 3145 3144 3142 3141 3139 3137 3135 3133 3130 3127 3124 3121 3118 3114 3112 3109 3104 3099 3094 3090 3085 3080 3074 3066 3061 3058 3051 3042 3036 3030 3024 3018 3011 3004 2997 2990 2983 2978 2973 2967
3212 3211 3211 3210 3209 3208 3207 3206 3205 3204 3203 3201 3199 3197 3196 3194 3192 3190 3189 3187 3185 3184 3183 3182 3181 3180 3179 3179 3178 3177 3176 3175 3173 3172 3170 3169 3167 3165 3163 3161 3159 3157 3155 3153 3150 3148 3146 3145 3143 3141 3140 3138 3136 3134 3131 3128 3125 3122 3119 3116 3113 3110 3107 3102 3096 3089 3085 3081 3076 3068 3058 3052 3050 3047 3040 3033 3026 3018 3011 3005 2998 2991 2984 2976 2969 2964 2961
3212 3211 3210 3210 3209 3208 3207 3206 3205 3204 3202 3201 3199 3198 3196 3194 3192 3190 3188 3187 3185 3184 3183 3182 3181 3180 3179 3178 3177 3176 3175 3174 3173 3171 3170 3168 3166 3164 3162 3160 3158 3156 3153 3151 3149 3147 3145 3144 3142 3140 3138 3137 3135 3132 3130 3127 3124 3121 3117 3115 3112 3108 3104 3101 3094 3086 3080 3075 3072 3066 3055 3045 3041 3040 3036 3030 3023 3015 3007 3000 2993 2985 2978 2971 2963 2956 2951
3212 3211 3210 3209 3208 3207 3206 3206 3205 3203 3202 3201 3199 3198 3196 3194 3192 3190 3188 3187 3185 3184 3183 3181 3180 3179 3178 3178 3177 3176 3175 3174 3172 3170 3169 3167 3165 3163 3160 3158 3156 3154 3152 3150 3148 3146 3144 3143 3141 3139 3137 3135 3133 3131 3128 3125 3122 3119 3116 3112 3110 3106 3103 3100 3095 3088 3081 3075 3070 3065 3057 3047 3039 3036 3032 3026 3019 3012 3004 2997 2989 2982 2975 2968 2960 2952 2944
3211 3210 3210 3209 3208 3207 3206 3205 3204 3203 3202 3201 3199 3197 3196 3194 3192 3190 3188 3186 3185 3183 3182 3181 3180 3179 3178 3177 3177 3176 3174 3173 3171 3169 3167 3165 3163 3161 3159 3157 3155 3153 3151 3149 3147 3145 3144 3142 3140 3138 3136 3134 3131 3129 3126 3123 3119 3116 3114 3111 3109 3106 3103 3100 3095 3088 3080 3073 3066 3060 3054 3046 3039 3032 3027 3022 3015 3007 2999 2993 2986 2979 2972 2965 2958 2951 2943
3211 3210 3209 3208 3207 3207 3206 3205 3204 3203 3202 3200 3198 3196 3195 3193 3191 3189 3187 3186 3184 3183 3182 3181 3179 3178 3178 3177 3176 3175 3173 3172 3170 3168 3166 3164 3162 3160 3158 3156 3154 3152 3150 3148 3146 3145 3143 3141 3139 3137 3134 3132 3129 3127 3124 3121 3118 3115 3112 3109 3106 3103 3099 3095 3090 3084 3076 3069 3062 3056 3050 3044 3037 3030 3024 3018 3011 3002 2994 2987 2981 2974 2967 2961 2954 2947 2940
3211 3210 3209 3208 3207 3206 3205 3205 3204 3202 3201 3199 3197 3196 3194 3192 3190 3188 3186 3185 3184 3182 3181 3180 3179 3178 3177 3176 3175 3174 3173 3171 3169 3167 3165 3163 3160 3158 3156 3155 3153 3151 3149 3147 3146 3144 3142 3140 3138 3135 3133 3130 3127 3124 3121 3118 3116 3113 3109 3105 3101 3097 3093 3088 3085 3079 3073 3065 3059 3053 3047 3041 3033 3024 3016 3011 3006 2998 2989 2982 2976 2969 2962 2956 2950 2943 2936
3210 3209 3208 3207 3207 3206 3205 3204 3203 3201 3200 3199 3197 3195 3193 3191 3189 3187 3186 3184 3183 3182 3180 3179 3178 3177 3176 3175 3174 3173 3172 3170 3168 3166 3164 3162 3160 3157 3156 3154 3152 3150 3148 3146 3144 3142 3140 3138 3135 3133 3130 3127 3124 3121 3119 3116 3113 3109 3105 3101 3097 3093 3087 3083 3078 3074 3068 3062 3055 3046 3039 3032 3026 3018 3010 3004 2999 2993 2986 2978 2970 2963 2956 2950 2943 2937 2931
3209 3208 3208 3207 3206 3205 3204 3203 3201 3200 3199 3197 3196 3194 3192 3190 3188 3187 3185 3184 3182 3181 3180 3178 3177 3176 3175 3173 3172 3171 3170 3169 3167 3165 3162 3160 3158 3156 3154 3152 3150 3148 3146 3144 3142 3140 3138 3135 3132 3130 3127 3125 3122 3119 3117 3114 3111 3107 3103 3098 3093 3088 3083 3078 3073 3068 3063 3058 3052 3044 3034 3025 3020 3014 3008 3001 2995 2989 2982 2974 2966 2957 2950 2943 2936 2929 2923
3208 3208 3207 3206 3205 3204 3203 3202 3200 3199 3197 3196 3194 3193 3191 3189 3187 3185 3184 3183 3182 3180 3179 3177 3176 3175 3174 3172 3171 3169 3167 3166 3164 3162 3160 3158 3156 3154 3152 3150 3148 3146 3144 3142 3140 3138 3135 3132 3130 3127 3125 3122 3120 3117 3115 3112 3108 3105 3100 3096 3091 3085 3078 3072 3067 3062 3056 3051 3047 3042 3035 3025 3017 3010 3004 2998 2992 2985 2977 2970 2961 2952 2943 2936 2929 2922 2916
3208 3207 3206 3205 3204 3203 3202 3200 3199 3197 3196 3195 3193 3192 3190 3188 3186 3185 3183 3182 3181 3179 3178 3176 3175 3174 3173 3171 3170 3168 3166 3164 3161 3159 3157 3155 3153 3152 3150 3148 3146 3144 3142 3140 3138 3136 3133 3130 3128 3125 3123 3121 3119 3116 3112 3109 3105 3102 3097 3093 3087 3081 3073 3066 3060 3056 3051 3046 3041 3036 3030 3021 3012 3005 2998 2992 2986 2979 2971 2964 2956 2948 2939 2932 2925 2918 2911
3207 3206 3205 3204 3203 3202 3200 3199 3198 3196 3195 3194 3192 3190 3188 3187 3185 3184 3182 3181 3180 3178 3176 3175 3173 3171 3170 3168 3167 3165 3163 3161 3159 3157 3155 3153 3151 3150 3148 3146 3144 3142 3140 3138 3136 3134 3131 3128 3126 3124 3122 3119 3117 3114 3111 3107 3104 3099 3094 3089 3084 3078 3072 3065 3058 3052 3046 3041 3036 3030 3023 3016 3008 3000 2993 2987 2982 2975 2967 2959 2951 2944 2936 2928 2921 2914 2907
3206 3205 3204 3203 3202 3201 3199 3198 3197 3195 3194 3192 3191 3189 3187 3185 3184 3183 3181 3180 3179 3177 3175 3173 3171 3170 3167 3165 3164 3162 3161 3159 3157 3155 3153 3151 3149 3147 3145 3143 3141 3140 3138 3136 3134 3132 3129 3127 3124 3122 3120 3118 3115 3112 3110 3107 3102 3097 3091 3086 3082 3076 3070 3064 3057 3050 3043 3036 3030 3024 3017 3010 3003 2996 2989 2982 2977 2970 2963 2955 2948 2941 2933 2926 2919 2911 2903
3205 3204 3203 3202 3201 3199 3198 3197 3196 3194 3192 3191 3189 3187 3186 3184 3182 3181 3180 3179 3177 3175 3173 3172 3170 3168 3166 3164 3162 3160 3159 3157 3155 3153 3151 3149 3147 3145 3143 3141 3139 3138 3136 3134 3133 3131 3128 3126 3123 3120 3118 3116 3113 3111 3108 3105 3100 3095 3090 3084 3079 3073 3066 3060 3054 3048 3039 3031 3024 3018 3011 3003 2997 2992 2985 2978 2972 2967 2960 2953 2946 2940 2933 2925 2917 2908 2900
3204 3203 3202 3200 3199 3198 3197 3195 3194 3193 3191 3189 3188 3186 3184 3183 3181 3180 3178 3177 3175 3173 3171 3170 3168 3167 3165 3163 3161 3159 3157 3155 3154 3152 3149 3147 3146 3143 3141 3139 3138 3136 3134 3133 3131 3129 3127 3124 3122 3119 3116 3114 3112 3109 3105 3101 3097 3092 3087 3082 3076 3070 3063 3058 3053 3047 3039 3031 3024 3019 3012 3003 2995 2989 2983 2976 2970 2965 2959 2952 2945 2937 2930 2923 2915 2906 2897
3202 3201 3200 3199 3198 3197 3196 3194 3193 3191 3189 3188 3186 3185 3183 3181 3180 3178 3176 3174 3173 3171 3169 3168 3166 3164 3162 3161 3159 3157 3154 3153 3152 3150 3148 3146 3144 3142 3140 3138 3136 3134 3133 3131 3129 3127 3125 3123 3121 3118 3115 3113 3110 3106 3102 3098 3093 3089 3083 3078 3072 3066 3060 3054 3050 3045 3038 3031 3025 3019 3013 3006 2998 2990 2983 2976 2969 2962 2956 2950 2943 2935 2927 2920 2912 2903 2895
3201 3200 3199 3198 3197 3196 3194 3193 3191 3190 3188 3187 3185 3183 3182 3180 3178 3176 3174 3172 3171 3169 3168 3166 3165 3163 3161 3159 3157 3155 3153 3151 3150 3148 3146 3145 3143 3141 3139 3137 3135 3133 3131 3130 3128 3126 3124 3122 3120 3117 3114 3111 3107 3103 3098 3093 3089 3084 3079 3074 3068 3062 3056 3051 3047 3041 3034 3027 3020 3014 3008 3002 2996 2990 2983 2976 2968 2962 2955 2947 2940 2933 2925 2916 2909 2901 2894
3200 3199 3198 3197 3195 3194 3193 3191 3190 3188 3187 3185 3184 3182 3180 3178 3177 3175 3173 3171 3170 3168 3167 3165 3164 3162 3160 3158 3156 3154 3152 3150 3148 3146 3145 3143 3141 3140 3138 3136 3134 3132 3130 3129 3127 3125 3122 3120 3118 3115 3112 3108 3104 3099 3094 3089 3084 3079 3074 3070 3064 3058 3053 3047 3042 3036 3031 3024 3017 3011 3005 2999 2993 2988 2981 2974 2967 2961 2955 2947 2938 2930 2922 2914 2907 2899 2891
3198 3197 3196 3195 3194 3193 3191 3190 3189 3187 3186 3184 3183 3181 3179 3178 3176 3174 3172 3171 3169 3168 3166 3164 3163 3161 3159 3157 3155 3153 3151 3149 3147 3145 3143 3141 3140 3138 3136 3134 3133 3131 3129 3127 3125 3123 3121 3118 3116 3112 3109 3105 3101 3095 3090 3085 3080 3075 3071 3066 3061 3056 3050 3044 3038 3032 3027 3021 3015 3008 3002 2996 2990 2985 2980 2973 2965 2959 2953 2946 2938 2929 2921 2913 2905 2897 2889
3196 3196 3195 3194 3192 3191 3190 3189 3188 3187 3185 3184 3182 3180 3179 3177 3175 3174 3172 3170 3168 3167 3165 3164 3162 3160 3158 3156 3155 3153 3151 3149 3147 3144 3142 3141 3139 3137 3135 3133 3131 3129 3127 3125 3123 3121 3119 3116 3113 3110 3106 3101 3097 3092 3087 3082 3077 3071 3066 3062 3058 3052 3046 3040 3035 3028 3022 3017 3011 3005 2998 2992 2987 2982 2977 2971 2964 2956 2949 2942 2935 2927 2919 2911 2904 2896 2887
3194 3194 3193 3192 3191 3190 3189 3188 3187 3185 3184 3183 3181 3179 3177 3176 3174 3172 3170 3168 3167 3165 3164 3162 3160 3158 3157 3155 3153 3152 3150 3148 3145 3143 3141 3140 3138 3135 3133 3132 3129 3127 3125 3123 3121 3119 3117 3114 3110 3106 3102 3097 3092 3088 3084 3079 3074 3068 3062 3057 3053 3048 3042 3036 3030 3024 3018 3012 3006 3000 2994 2988 2983 2977 2972 2968 2962 2954 2946 2938 2931 2923 2916 2908 2901 2893 2886
3193 3192 3191 3190 3189 3188 3187 3187 3185 3184 3183 3181 3180 3178 3176 3174 3172 3170 3169 3167 3165 3163 3162 3160 3158 3157 3155 3153 3151 3150 3148 3146 3144 3142 3141 3139 3137 3134 3132 3130 3127 3125 3122 3120 3118 3116 3114 3111 3107 3103 3098 3094 3089 3085 3081 3077 3071 3066 3059 3054 3049 3044 3039 3033 3028 3022 3015 3009 3003 2997 2991 2985 2980 2974 2969 2965 2960 2952 2944 2937 2930 2923 2914 2907 2899 2891 2884
3191 3190 3189 3188 3188 3187 3186 3185 3184 3183 3181 3180 3178 3176 3174 3172 3170 3169 3167 3165 3164 3162 3160 3158 3157 3155 3153 3151 3149 3148 3146 3145 3143 3141 3140 3138 3136 3134 3131 3129 3126 3124 3121 3119 3116 3113 3111 3108 3104 3100 3096 3091 3086 3082 3078 3073 3067 3062 3057 3051 3046 3041 3036 3031 3025 3019 3013 3006 3000 2994 2988 2982 2977 2971 2966 2961 2956 2949 2942 2935 2928 2922 2914 2907 2900 2892 2883
3189 3188 3187 3187 3186 3185 3184 3183 3182 3181 3180 3178 3176 3174 3172 3170 3168 3166 3165 3163 3162 3160 3158 3156 3155 3153 3151 3149 3147 3146 3144 3143 3141 3140 3138 3137 3135 3132 3130 3128 3125 3123 3120 3117 3114 3111 3108 3105 3101 3097 3093 3089 3084 3079 3074 3069 3064 3059 3054 3048 3043 3038 3033 3028 3022 3016 3010 3004 2998 2991 2985 2979 2974 2969 2963 2957 2952 2946 2940 2934 2927 2921 2914 2906 2899 2891 2881
3187 3186 3185 3185 3184 3183 3182 3181 3180 3179 3177 3176 3174 3172 3170 3168 3166 3164 3162 3161 3159 3158 3156 3154 3152 3150 3149 3147 3145 3143 3142 3141 3139 3138 3137 3135 3133 3131 3129 3127 3124 3121 3118 3116 3112 3109 3106 3103 3099 3094 3090 3086 3082 3077 3071 3066 3061 3056 3051 3045 3040 3036 3031 3026 3020 3014 3008 3002 2995 2989 2983 2977 2971 2966 2960 2954 2948 2943 2937 2932 2926 2920 2913 2905 2897 2888 2880
3184 3184 3183 3182 3182 3181 3180 3179 3178 3176 3175 3173 3172 3170 3168 3166 3164 3162 3160 3159 3157 3156 3154 3152 3150 3148 3146 3145 3143 3141 3140 3139 3138 3136 3135 3133 3132 3130 3128 3126 3123 3119 3116 3114 3111 3107 3104 3101 3096 3091 3087 3083 3079 3073 3068 3064 3058 3053 3048 3043 3038 3034 3029 3023 3017 3012 3006 3000 2994 2987 2981 2975 2969 2963 2957 2951 2945 2940 2935 2929 2923 2916 2909 2902 2894 2887 2879
3182 3181 3181 3180 3179 3178 3178 3177 3175 3174 3172 3171 3169 3167 3165 3163 3161 3160 3158 3157 3155 3153 3151 3149 3148 3146 3144 3142 3141 3139 3137 3136 3135 3134 3132 3131 3130 3128 3126 3124 3121 3118 3114 3112 3109 3105 3102 3098 3093 3088 3084 3080 3075 3070 3065 3060 3056 3051 3046 3041 3036 3031 3027 3021 3015 3009 3004 2998 2992 2986 2979 2973 2967 2962 2955 2949 2943 2937 2932 2926 2920 2913 2906 2899 2892 2885 2878
3180 3179 3178 3178 3177 3176 3175 3174 3173 3172 3170 3168 3167 3165 3163 3161 3159 3158 3156 3155 3153 3151 3149 3148 3146 3144 3143 3141 3139 3137 3135 3134 3133 3132 3130 3129 3127 3125 3123 3121 3118 3115 3112 3109 3106 3103 3099 3096 3091 3086 3081 3076 3071 3066 3062 3057 3053 3049 3044 3038 3033 3028 3024 3018 3012 3006 3001 2995 2990 2984 2978 2972 2966 2961 2955 2948 2941 2933 2926 2921 2915 2910 2904 2897 2890 2884 2878